This is the latest recevied weather packets stored in our database for station/object K5FEP. If no packets are shown the sender has not sent any weather packets the latest 10 day(s).
| Time | Temp. | Humidity | Pressure | Rain* | Wind** | Luminosity | Snow |
|---|---|---|---|---|---|---|---|
| 1777381490 | 10° C | 92% | 1022.2 hPa | 0 mm | - | 85 W/m² | - |
| 1777381187 | 10° C | 93% | 1022.2 hPa | 1.27 mm | - | 92 W/m² | - |
| 1777380884 | 10° C | 93% | 1022.4 hPa | 1.27 mm | - | 85 W/m² | - |
| 1777380582 | 9.44° C | 94% | 1022.6 hPa | 0 mm | - | 97 W/m² | - |
| 1777380277 | 9.44° C | 94% | 1022.7 hPa | 0 mm | - | 103 W/m² | - |
| 1777379973 | 9.44° C | 94% | 1022.7 hPa | 1.78 mm | - | 109 W/m² | - |
| 1777379669 | 9.44° C | 94% | 1023 hPa | 1.78 mm | - | 104 W/m² | - |
| 1777379365 | 8.89° C | 93% | 1023.2 hPa | 0 mm | - | 93 W/m² | - |
| 1777379061 | 8.89° C | 93% | 1023.5 hPa | 1.27 mm | - | 83 W/m² | - |
| 1777378755 | 8.89° C | 93% | 1023.5 hPa | 0 mm | - | 58 W/m² | - |
| 1777378453 | 8.89° C | 93% | 1024 hPa | 1.78 mm | - | 40 W/m² | - |
| 1777378148 | 8.89° C | 92% | 1023.9 hPa | 1.78 mm | - | 35 W/m² | - |
| 1777377847 | 8.89° C | 92% | 1024.1 hPa | 0 mm | - | 34 W/m² | - |
| 1777377547 | 8.89° C | 92% | 1024.1 hPa | 0 mm | - | 33 W/m² | - |
| 1777377242 | 8.89° C | 91% | 1024.3 hPa | 1.27 mm | - | 34 W/m² | - |
| 1777376940 | 8.89° C | 91% | 1024.1 hPa | 1.27 mm | - | 42 W/m² | - |
| 1777376637 | 8.89° C | 92% | 1024.1 hPa | 0 mm | - | 48 W/m² | - |
| 1777376334 | 8.33° C | 91% | 1024 hPa | 1.78 mm | - | 39 W/m² | - |
| 1777376029 | 8.33° C | 91% | 1023.5 hPa | 1.78 mm | - | 21 W/m² | - |
| 1777375728 | 8.33° C | 91% | 1023.5 hPa | 0 mm | - | 11 W/m² | - |
| 1777375424 | 8.33° C | 90% | 1023 hPa | 0 mm | - | 10 W/m² | - |
| 1777375122 | 8.33° C | 90% | 1023.5 hPa | 0 mm | - | 13 W/m² | - |
| 1777374820 | 8.33° C | 90% | 1023.6 hPa | 0 mm | - | 13 W/m² | - |
| 1777374516 | 8.33° C | 89% | 1023.9 hPa | 0 mm | - | 20 W/m² | - |
| 1777374214 | 8.33° C | 88% | 1023.6 hPa | 0 mm | - | 12 W/m² | - |
* Rain latest hour (hover to see other rain measurements)
** Current wind speed in m/s (hover to see current wind gust speed)